COSMOS 1408

Last updated on Sun Oct 27 2024 00:02:09 GMT+0000 (Coordinated Universal Time)

1 13552U 82092A 24300.57025604 .04593359 -12276-5 60617-3 0 9990 2 13552 82.5262 99.8973 0006464 243.9652 212.6747 16.35612738309462
UTC large
Height (km)
Speed (km/s)
/
Latitude / Longitude
Inclination (degrees)
Orbital Period (minutes)
Azimuth
Elevation
Range (km)
Doppler Factor

Next 0 passes for location: London (51.5072 / 0.1276)

Sorry there are no passes over London.